TimeCST,TemperatureF,Dew PointF,Humidity,Sea Level PressureIn,VisibilityMPH,Wind Direction,Wind SpeedMPH,Gust SpeedMPH,PrecipitationIn,Events,Conditions,WindDirDegrees,DateUTC
12:00 AM,70,61,65,29.85,12,East,8.1,,,,,100,2012-10-04 06:00:00
12:00 AM,69.8,60.8,73,30.01,-9999.0,East,8.1,-,N/A,,Clear,100,2012-10-04 06:00:00
1:00 AM,69.8,60.8,73,29.99,-9999.0,East,6.9,-,N/A,,Clear,100,2012-10-04 07:00:00
2:00 AM,69.8,59.0,68,29.99,-9999.0,ESE,6.9,-,N/A,,Clear,120,2012-10-04 08:00:00
3:00 AM,71,58,55,29.84,12,East,8.1,,,,Clear,100,2012-10-04 09:00:00
3:00 AM,71.6,59.0,64,29.99,-9999.0,East,8.1,-,N/A,,Clear,100,2012-10-04 09:00:00
4:00 AM,69.8,59.0,68,30.01,-9999.0,ESE,6.9,-,N/A,,Clear,120,2012-10-04 10:00:00
5:00 AM,69.8,60.8,73,30.03,-9999.0,ESE,8.1,-,N/A,,Clear,120,2012-10-04 11:00:00
6:00 AM,70,60,61,29.88,12,ESE,9.2,,,,Clear,120,2012-10-04 12:00:00
6:00 AM,69.8,59.0,68,30.04,-9999.0,ESE,9.2,-,N/A,,Clear,120,2012-10-04 12:00:00
7:00 AM,73.4,60.8,65,30.08,-9999.0,East,6.9,-,N/A,,Clear,100,2012-10-04 13:00:00
8:00 AM,77.0,60.8,57,30.09,-9999.0,East,8.1,-,N/A,,Clear,100,2012-10-04 14:00:00
9:00 AM,80,60,41,29.96,12,East,9.2,,,,Scattered Clouds,80,2012-10-04 15:00:00
9:00 AM,78.8,60.8,54,30.09,6.2,East,9.2,-,N/A,,Scattered Clouds,80,2012-10-04 15:00:00
10:00 AM,80.6,60.8,51,30.09,6.2,ENE,11.5,-,N/A,,Scattered Clouds,70,2012-10-04 16:00:00
11:00 AM,80.6,64.4,58,30.07,6.2,ENE,11.5,-,N/A,,Scattered Clouds,70,2012-10-04 17:00:00
12:00 PM,81,62,42,29.85,12,ESE,11.5,,,,Partly Cloudy,110,2012-10-04 18:00:00
12:00 PM,82.4,59.0,45,29.99,6.2,ESE,10.4,-,N/A,,Mostly Cloudy,120,2012-10-04 18:00:00
1:00 PM,82.4,59.0,45,29.99,6.2,ESE,10.4,-,N/A,,Mostly Cloudy,120,2012-10-04 19:00:00
2:00 PM,86.0,55.4,35,29.95,6.2,ESE,6.9,-,N/A,,Mostly Cloudy,110,2012-10-04 20:00:00
2:20 PM,80.6,68.0,65,29.95,6.2,SW,12.7,-,N/A,,Mostly Cloudy,230,2012-10-04 20:20:00
3:00 PM,78,71,74,29.80,9,WSW,13.8,,,,Mostly Cloudy,240,2012-10-04 21:00:00
3:00 PM,78.8,71.6,78,29.95,6.2,WSW,13.8,-,N/A,,Mostly Cloudy,240,2012-10-04 21:00:00
4:00 PM,73.4,69.8,88,29.98,5.0,WSW,10.4,-,N/A,Fog,Fog,240,2012-10-04 22:00:00
5:00 PM,71.6,68.0,88,30.01,5.0,SW,11.5,-,N/A,,Mostly Cloudy,230,2012-10-04 23:00:00
6:00 PM,70,67,88,29.89,5,WSW,5.8,,,Rain,Light Rain,240,2012-10-05 00:00:00
6:00 PM,69.8,68.0,94,30.03,5.0,WSW,5.8,-,N/A,Fog-Rain,Light Rain,240,2012-10-05 00:00:00
7:00 PM,69.8,66.2,88,30.05,6.2,Calm,Calm,-,N/A,Fog,Mostly Cloudy,0,2012-10-05 01:00:00
8:00 PM,69.8,66.2,88,30.06,6.2,Calm,Calm,-,N/A,Rain,Light Rain,0,2012-10-05 02:00:00
9:00 PM,69,65,84,29.92,12,ENE,2.3,,,,Overcast,60,2012-10-05 03:00:00
9:00 PM,69.8,64.4,83,30.08,6.2,ENE,2.3,-,N/A,,Mostly Cloudy,60,2012-10-05 03:00:00
10:00 PM,68.0,64.4,88,30.09,6.2,ESE,2.3,-,N/A,,Mostly Cloudy,110,2012-10-05 04:00:00
11:00 PM,68.0,64.4,88,30.06,-9999.0,ENE,4.6,-,N/A,,Clear,60,2012-10-05 05:00:00